^^

Weather Underground History

Daily Summary for February 1, 2018 Units:  Metric    English   Both
Daily Weekly Monthly Yearly
  High: Low: Average:
Temperature: 6 °C 1 °C 3.6 °C
Dew Point: 2 °C -1 °C 0.6 °C
Humidity: 93% 71% 81%
Wind Speed: 39km/h 0km/h 11.9km/h
Wind Gust: 39km/h - -
Wind- - WNW
Pressure: 1006.8 hPa 994.2 hPa -
Precipitation: 0.0 mm    
 
 
Tabular Data for February 1, 2018
Time Temperature Dew Point Pressure Wind Wind Speed Wind Gust Humidity Rainfall Rate (Hourly) solar
00:00 1 °C 0 °C 994.2 hPa SW 10 km/h 13 km/h 92% 0.8 mm 0 W/m2
00:05 1 °C 0 °C 994.2 hPa SW 11 km/h 11 km/h 92% 0.8 mm 0 W/m2
00:10 1 °C 0 °C 994.2 hPa SSW 8 km/h 10 km/h 92% 0.0 mm 0 W/m2
00:15 1 °C 0 °C 994.2 hPa Calm   5 km/h 92% 0.0 mm 0 W/m2
00:20 1 °C 0 °C 994.2 hPa SSW 3 km/h 10 km/h 93% 0.0 mm 0 W/m2
00:25 1 °C 1 °C 994.6 hPa SW 6 km/h 11 km/h 93% 0.0 mm 0 W/m2
00:30 1 °C 1 °C 994.6 hPa WSW 8 km/h 11 km/h 93% 0.0 mm 0 W/m2
00:35 2 °C 1 °C 994.6 hPa West 10 km/h 11 km/h 93% 0.0 mm 0 W/m2
00:40 2 °C 1 °C 994.6 hPa West 10 km/h 10 km/h 93% 0.0 mm 0 W/m2
00:45 2 °C 1 °C 994.6 hPa West 8 km/h 11 km/h 93% 0.0 mm 0 W/m2
00:50 2 °C 1 °C 994.6 hPa WNW 5 km/h 11 km/h 93% 0.0 mm 0 W/m2
00:55 2 °C 1 °C 994.6 hPa WNW 6 km/h 10 km/h 93% 0.0 mm 0 W/m2
01:00 1 °C 1 °C 994.9 hPa WNW 5 km/h 10 km/h 93% 0.0 mm 0 W/m2
01:05 1 °C 1 °C 994.9 hPa WNW 5 km/h 10 km/h 93% 0.0 mm 0 W/m2
01:10 2 °C 1 °C 994.9 hPa WNW 6 km/h 13 km/h 93% 0.0 mm 0 W/m2
01:15 2 °C 1 °C 994.9 hPa West 8 km/h 13 km/h 93% 0.0 mm 0 W/m2
01:20 2 °C 1 °C 994.9 hPa WNW 10 km/h 19 km/h 93% 0.0 mm 0 W/m2
01:25 2 °C 1 °C 995.3 hPa WNW 6 km/h 18 km/h 93% 0.0 mm 0 W/m2
01:30 2 °C 1 °C 995.3 hPa WNW 10 km/h 13 km/h 93% 0.0 mm 0 W/m2
01:35 2 °C 1 °C 995.3 hPa WNW 3 km/h 11 km/h 92% 0.0 mm 0 W/m2
01:40 2 °C 1 °C 995.3 hPa WNW 10 km/h 16 km/h 92% 0.0 mm 0 W/m2
01:46 2 °C 1 °C 995.6 hPa WNW 6 km/h 10 km/h 92% 0.0 mm 0 W/m2
01:51 2 °C 1 °C 995.6 hPa WNW 8 km/h 10 km/h 92% 0.0 mm 0 W/m2
01:56 2 °C 1 °C 995.6 hPa NW 5 km/h 11 km/h 91% 0.0 mm 0 W/m2
02:01 2 °C 1 °C 995.6 hPa Calm   11 km/h 91% 0.0 mm 0 W/m2
02:06 2 °C 1 °C 995.6 hPa NW 6 km/h 6 km/h 91% 0.0 mm 0 W/m2
02:11 2 °C 1 °C 995.9 hPa WNW 8 km/h 13 km/h 91% 0.0 mm 0 W/m2
02:16 2 °C 1 °C 995.9 hPa WNW 16 km/h 16 km/h 91% 0.0 mm 0 W/m2
02:21 2 °C 1 °C 995.9 hPa WNW 16 km/h 16 km/h 90% 0.0 mm 0 W/m2
02:26 2 °C 1 °C 995.9 hPa WNW 11 km/h 16 km/h 90% 0.0 mm 0 W/m2
02:31 2 °C 1 °C 995.9 hPa WNW 8 km/h 11 km/h 90% 0.0 mm 0 W/m2
02:36 2 °C 1 °C 996.3 hPa WNW 10 km/h 16 km/h 90% 0.0 mm 0 W/m2
02:41 2 °C 1 °C 995.9 hPa WNW 10 km/h 16 km/h 90% 0.0 mm 0 W/m2
02:46 2 °C 1 °C 995.9 hPa WNW 16 km/h 23 km/h 90% 0.0 mm 0 W/m2
02:51 2 °C 1 °C 996.3 hPa NW 11 km/h 21 km/h 90% 0.0 mm 0 W/m2
02:56 2 °C 1 °C 996.6 hPa NW 10 km/h 19 km/h 89% 0.0 mm 0 W/m2
03:01 2 °C 0 °C 996.6 hPa WNW 10 km/h 13 km/h 88% 0.0 mm 0 W/m2
03:06 2 °C 0 °C 996.6 hPa NW 6 km/h 16 km/h 88% 0.0 mm 0 W/m2
03:11 2 °C 0 °C 996.6 hPa NW 8 km/h 11 km/h 88% 0.0 mm 0 W/m2
03:16 2 °C 0 °C 996.6 hPa WNW 6 km/h 13 km/h 89% 0.0 mm 0 W/m2
03:21 2 °C 0 °C 997.0 hPa WNW 6 km/h 14 km/h 89% 0.0 mm 0 W/m2
03:26 2 °C 0 °C 997.0 hPa WNW 11 km/h 14 km/h 89% 0.0 mm 0 W/m2
03:31 2 °C 0 °C 997.0 hPa WNW 5 km/h 13 km/h 89% 0.0 mm 0 W/m2
03:36 2 °C 0 °C 997.0 hPa NW 10 km/h 18 km/h 89% 0.0 mm 0 W/m2
03:41 2 °C 0 °C 997.0 hPa WNW 11 km/h 18 km/h 89% 0.0 mm 0 W/m2
03:46 2 °C 0 °C 997.0 hPa West 11 km/h 24 km/h 88% 0.0 mm 0 W/m2
03:51 2 °C 0 °C 997.0 hPa NW 8 km/h 18 km/h 88% 0.0 mm 0 W/m2
03:56 2 °C 0 °C 997.0 hPa WNW 6 km/h 13 km/h 88% 0.0 mm 0 W/m2
04:01 2 °C 0 °C 997.0 hPa NW 5 km/h 8 km/h 88% 0.0 mm 0 W/m2
04:06 2 °C 0 °C 997.0 hPa WNW 8 km/h 10 km/h 88% 0.0 mm 0 W/m2
04:11 2 °C 0 °C 997.0 hPa North 5 km/h 11 km/h 88% 0.0 mm 0 W/m2
04:16 2 °C 0 °C 997.3 hPa WNW 6 km/h 11 km/h 88% 0.0 mm 0 W/m2
04:21 2 °C 0 °C 997.3 hPa WNW 5 km/h 8 km/h 88% 0.0 mm 0 W/m2
04:26 2 °C 0 °C 997.3 hPa NW 5 km/h 14 km/h 88% 0.0 mm 0 W/m2
04:31 2 °C 0 °C 997.3 hPa Calm   5 km/h 87% 0.0 mm 0 W/m2
04:36 2 °C 0 °C 997.3 hPa WNW 5 km/h 8 km/h 87% 0.0 mm 0 W/m2
04:41 2 °C 0 °C 997.3 hPa WNW 5 km/h 19 km/h 87% 0.0 mm 0 W/m2
04:46 2 °C 0 °C 997.3 hPa WNW 5 km/h 11 km/h 86% 0.0 mm 0 W/m2
04:51 2 °C 0 °C 997.3 hPa NW 5 km/h 13 km/h 86% 0.0 mm 0 W/m2
04:56 2 °C 1 °C 997.3 hPa WNW 10 km/h 19 km/h 86% 0.0 mm 0 W/m2
05:01 3 °C 1 °C 997.3 hPa WNW 11 km/h 19 km/h 86% 0.0 mm 0 W/m2
05:06 3 °C 1 °C 997.3 hPa WNW 5 km/h 19 km/h 86% 0.0 mm 0 W/m2
05:11 3 °C 1 °C 997.3 hPa WNW 13 km/h 23 km/h 86% 0.0 mm 0 W/m2
05:16 3 °C 1 °C 997.3 hPa WNW 24 km/h 26 km/h 86% 0.0 mm 0 W/m2
05:21 3 °C 1 °C 997.3 hPa WNW 11 km/h 23 km/h 86% 0.0 mm 0 W/m2
05:26 3 °C 1 °C 997.6 hPa WNW 24 km/h 26 km/h 86% 0.0 mm 0 W/m2
05:31 3 °C 1 °C 997.6 hPa West 16 km/h 23 km/h 86% 0.0 mm 0 W/m2
05:36 3 °C 1 °C 997.6 hPa NW 5 km/h 18 km/h 85% 0.0 mm 0 W/m2
05:41 3 °C 1 °C 998.0 hPa West 13 km/h 13 km/h 86% 0.0 mm 0 W/m2
05:46 3 °C 1 °C 998.0 hPa NW 13 km/h 21 km/h 86% 0.0 mm 0 W/m2
05:51 3 °C 1 °C 998.0 hPa WNW 13 km/h 19 km/h 86% 0.0 mm 0 W/m2
05:56 3 °C 1 °C 998.0 hPa WNW 16 km/h 23 km/h 86% 0.0 mm 0 W/m2
06:01 3 °C 1 °C 998.0 hPa WNW 10 km/h 26 km/h 85% 0.0 mm 0 W/m2
06:06 3 °C 1 °C 998.0 hPa WNW 21 km/h 29 km/h 85% 0.0 mm 0 W/m2
06:12 3 °C 1 °C 998.3 hPa WNW 6 km/h 27 km/h 85% 0.0 mm 0 W/m2
06:17 3 °C 1 °C 998.3 hPa WNW 18 km/h 23 km/h 85% 0.0 mm 0 W/m2
06:22 3 °C 1 °C 998.3 hPa NW 10 km/h 19 km/h 85% 0.0 mm 0 W/m2
06:27 3 °C 1 °C 998.3 hPa WNW 6 km/h 16 km/h 84% 0.0 mm 0 W/m2
06:32 3 °C 1 °C 998.3 hPa WNW 10 km/h 16 km/h 85% 0.0 mm 0 W/m2
06:37 3 °C 1 °C 998.6 hPa WNW 10 km/h 21 km/h 85% 0.0 mm 0 W/m2
06:42 3 °C 1 °C 998.3 hPa WNW 11 km/h 21 km/h 85% 0.0 mm 0 W/m2
06:47 3 °C 1 °C 998.6 hPa WNW 16 km/h 23 km/h 85% 0.0 mm 0 W/m2
06:52 3 °C 1 °C 998.6 hPa NW 8 km/h 18 km/h 84% 0.0 mm 0 W/m2
06:57 3 °C 1 °C 998.6 hPa NW 18 km/h 18 km/h 84% 0.0 mm 0 W/m2
07:02 3 °C 1 °C 998.6 hPa NW 11 km/h 19 km/h 85% 0.0 mm 0 W/m2
07:09 3 °C 1 °C 998.6 hPa WNW 12 km/h 24 km/h 84% 0.0 mm 0 W/m2
07:14 3 °C 1 °C 998.6 hPa WNW 8 km/h 13 km/h 84% 0.0 mm 0 W/m2
07:19 3 °C 1 °C 998.6 hPa NW 6 km/h 18 km/h 84% 0.0 mm 0 W/m2
07:24 3 °C 1 °C 998.6 hPa WNW 18 km/h 32 km/h 84% 0.0 mm 0 W/m2
07:29 3 °C 1 °C 998.6 hPa WNW 16 km/h 18 km/h 84% 0.0 mm 0 W/m2
07:34 3 °C 1 °C 999.0 hPa WNW 8 km/h 27 km/h 84% 0.0 mm 0 W/m2
07:39 3 °C 1 °C 999.0 hPa WNW 16 km/h 19 km/h 84% 0.0 mm 0 W/m2
07:44 3 °C 1 °C 999.0 hPa WNW 14 km/h 24 km/h 84% 0.0 mm 5 W/m2
07:49 3 °C 1 °C 999.0 hPa WNW 14 km/h 19 km/h 84% 0.0 mm 5 W/m2
07:54 3 °C 1 °C 999.0 hPa WNW 13 km/h 27 km/h 84% 0.0 mm 7 W/m2
07:59 3 °C 1 °C 999.3 hPa WNW 11 km/h 27 km/h 84% 0.0 mm 9 W/m2
08:04 3 °C 1 °C 999.3 hPa WNW 11 km/h 27 km/h 84% 0.0 mm 11 W/m2
08:09 3 °C 1 °C 999.3 hPa WNW 13 km/h 26 km/h 84% 0.0 mm 14 W/m2
08:14 3 °C 1 °C 999.3 hPa West 16 km/h 26 km/h 84% 0.0 mm 16 W/m2
08:19 3 °C 1 °C 999.7 hPa WNW 21 km/h 23 km/h 84% 0.0 mm 23 W/m2
08:24 3 °C 1 °C 999.7 hPa WNW 10 km/h 21 km/h 84% 0.0 mm 21 W/m2
08:29 3 °C 1 °C 999.7 hPa West 10 km/h 23 km/h 84% 0.0 mm 26 W/m2
08:34 3 °C 1 °C 1000.0 hPa WNW 8 km/h 16 km/h 84% 0.0 mm 47 W/m2
08:39 3 °C 1 °C 1000.0 hPa WNW 14 km/h 21 km/h 84% 0.0 mm 58 W/m2
08:44 3 °C 1 °C 1000.0 hPa WNW 19 km/h 21 km/h 84% 0.0 mm 65 W/m2
08:49 3 °C 1 °C 1000.0 hPa WNW 13 km/h 31 km/h 83% 0.0 mm 76 W/m2
08:55 3 °C 1 °C 1000.0 hPa WNW 14 km/h 24 km/h 83% 0.0 mm 86 W/m2
09:00 3 °C 1 °C 1000.0 hPa NW 18 km/h 26 km/h 83% 0.0 mm 98 W/m2
09:05 3 °C 1 °C 1000.0 hPa WNW 10 km/h 26 km/h 83% 0.0 mm 109 W/m2
09:10 3 °C 1 °C 1000.0 hPa WNW 13 km/h 26 km/h 83% 0.0 mm 121 W/m2
09:15 3 °C 1 °C 1000.0 hPa WNW 13 km/h 29 km/h 82% 0.0 mm 146 W/m2
09:20 3 °C 1 °C 1000.0 hPa NW 23 km/h 29 km/h 82% 0.0 mm 53 W/m2
09:25 3 °C 1 °C 1000.0 hPa WNW 18 km/h 23 km/h 81% 0.0 mm 134 W/m2
09:30 3 °C 1 °C 1000.0 hPa NW 18 km/h 24 km/h 82% 0.0 mm 167 W/m2
09:35 3 °C 1 °C 1000.0 hPa West 23 km/h 27 km/h 81% 0.0 mm 174 W/m2
09:40 3 °C 1 °C 1000.0 hPa WNW 23 km/h 26 km/h 81% 0.0 mm 151 W/m2
09:45 4 °C 1 °C 1000.0 hPa WNW 13 km/h 27 km/h 81% 0.0 mm 193 W/m2
09:50 4 °C 1 °C 1000.0 hPa WNW 13 km/h 24 km/h 81% 0.0 mm 207 W/m2
09:55 4 °C 1 °C 1000.0 hPa WNW 24 km/h 27 km/h 80% 0.0 mm 167 W/m2
10:00 4 °C 1 °C 1000.0 hPa West 14 km/h 27 km/h 80% 0.0 mm 229 W/m2
10:05 4 °C 1 °C 1000.3 hPa WNW 19 km/h 34 km/h 80% 0.0 mm 70 W/m2
10:10 4 °C 1 °C 1000.7 hPa NW 19 km/h 27 km/h 80% 0.0 mm 253 W/m2
10:15 4 °C 1 °C 1000.7 hPa West 19 km/h 31 km/h 80% 0.0 mm 178 W/m2
10:20 4 °C 1 °C 1000.3 hPa WNW 23 km/h 34 km/h 80% 0.0 mm 265 W/m2
10:25 4 °C 1 °C 1000.7 hPa WNW 11 km/h 29 km/h 79% 0.0 mm 274 W/m2
10:30 4 °C 1 °C 1000.7 hPa WNW 8 km/h 26 km/h 80% 0.0 mm 292 W/m2
10:35 4 °C 1 °C 1000.7 hPa NW 11 km/h 27 km/h 80% 0.0 mm 330 W/m2
10:40 4 °C 1 °C 1000.7 hPa WNW 18 km/h 26 km/h 79% 0.0 mm 102 W/m2
10:45 4 °C 1 °C 1000.7 hPa WNW 16 km/h 31 km/h 80% 0.0 mm 323 W/m2
10:50 4 °C 1 °C 1000.7 hPa WNW 14 km/h 24 km/h 79% 0.0 mm 322 W/m2
10:55 4 °C 1 °C 1000.7 hPa WNW 16 km/h 26 km/h 79% 0.0 mm 329 W/m2
11:00 4 °C 1 °C 1000.7 hPa WNW 14 km/h 32 km/h 78% 0.0 mm 338 W/m2
11:05 4 °C 1 °C 1000.7 hPa WNW 14 km/h 29 km/h 77% 0.0 mm 339 W/m2
11:10 4 °C 1 °C 1000.7 hPa WNW 21 km/h 37 km/h 77% 0.0 mm 323 W/m2
11:15 4 °C 1 °C 1000.7 hPa NW 23 km/h 34 km/h 76% 0.0 mm 332 W/m2
11:20 4 °C 1 °C 1000.7 hPa NW 26 km/h 26 km/h 77% 0.0 mm 336 W/m2
11:28 5 °C 1 °C 1000.7 hPa NW 19 km/h 29 km/h 76% 0.0 mm 341 W/m2
11:33 5 °C 1 °C 1000.7 hPa West 13 km/h 23 km/h 77% 0.0 mm 341 W/m2
11:38 5 °C 1 °C 1000.3 hPa WNW 16 km/h 31 km/h 76% 0.0 mm 345 W/m2
11:43 5 °C 1 °C 1000.3 hPa West 11 km/h 31 km/h 76% 0.0 mm 348 W/m2
11:48 5 °C 1 °C 1000.3 hPa West 10 km/h 21 km/h 76% 0.0 mm 350 W/m2
11:53 5 °C 1 °C 1000.3 hPa WNW 14 km/h 31 km/h 75% 0.0 mm 350 W/m2
11:58 5 °C 1 °C 1000.3 hPa WNW 16 km/h 21 km/h 75% 0.0 mm 352 W/m2
12:03 5 °C 1 °C 1000.7 hPa NW 14 km/h 19 km/h 76% 0.0 mm 353 W/m2
12:08 6 °C 2 °C 1000.7 hPa WNW 18 km/h 24 km/h 76% 0.0 mm 359 W/m2
12:13 6 °C 2 °C 1000.7 hPa WNW 11 km/h 18 km/h 76% 0.0 mm 357 W/m2
12:18 6 °C 1 °C 1000.7 hPa WNW 11 km/h 21 km/h 74% 0.0 mm 359 W/m2
12:23 6 °C 2 °C 1000.7 hPa WNW 14 km/h 24 km/h 75% 0.0 mm 353 W/m2
12:28 6 °C 2 °C 1000.7 hPa NW 18 km/h 23 km/h 75% 0.0 mm 355 W/m2
12:33 6 °C 1 °C 1000.7 hPa WNW 16 km/h 23 km/h 74% 0.0 mm 357 W/m2
12:38 6 °C 1 °C 1000.7 hPa WNW 16 km/h 26 km/h 74% 0.0 mm 346 W/m2
12:43 6 °C 1 °C 1000.7 hPa WSW 19 km/h 35 km/h 73% 0.0 mm 352 W/m2
12:48 6 °C 1 °C 1000.7 hPa WNW 18 km/h 26 km/h 74% 0.0 mm 348 W/m2
12:53 6 °C 2 °C 1000.7 hPa NW 27 km/h 27 km/h 75% 0.0 mm 346 W/m2
12:58 6 °C 2 °C 1000.7 hPa West 21 km/h 21 km/h 74% 0.0 mm 345 W/m2
13:03 6 °C 2 °C 1001.0 hPa NNW 11 km/h 19 km/h 74% 0.0 mm 343 W/m2
13:08 6 °C 2 °C 1001.0 hPa WNW 10 km/h 16 km/h 74% 0.0 mm 346 W/m2
13:13 6 °C 1 °C 1001.0 hPa NW 16 km/h 27 km/h 72% 0.0 mm 70 W/m2
13:18 6 °C 1 °C 1001.0 hPa WNW 19 km/h 23 km/h 73% 0.0 mm 345 W/m2
13:23 6 °C 1 °C 1001.0 hPa West 11 km/h 24 km/h 73% 0.0 mm 343 W/m2
13:28 6 °C 2 °C 1001.0 hPa WNW 26 km/h 34 km/h 76% 0.0 mm 332 W/m2
13:33 6 °C 1 °C 1001.0 hPa WNW 39 km/h 39 km/h 72% 0.0 mm 227 W/m2
13:38 6 °C 1 °C 1001.0 hPa WNW 19 km/h 26 km/h 73% 0.0 mm 241 W/m2
13:43 6 °C 2 °C 1001.0 hPa West 27 km/h 35 km/h 73% 0.0 mm 457 W/m2
13:48 6 °C 2 °C 1001.4 hPa West 14 km/h 23 km/h 74% 0.0 mm 478 W/m2
13:53 6 °C 2 °C 1001.4 hPa West 18 km/h 31 km/h 72% 0.0 mm 287 W/m2
13:58 6 °C 2 °C 1001.4 hPa WNW 11 km/h 18 km/h 73% 0.0 mm 162 W/m2
14:03 6 °C 2 °C 1001.4 hPa WNW 18 km/h 18 km/h 73% 0.0 mm 128 W/m2
14:08 6 °C 1 °C 1001.4 hPa NNE 14 km/h 32 km/h 73% 0.0 mm 120 W/m2
14:13 6 °C 1 °C 1001.4 hPa WNW 18 km/h 24 km/h 72% 0.0 mm 100 W/m2
14:18 6 °C 1 °C 1001.4 hPa West 26 km/h 31 km/h 72% 0.0 mm 93 W/m2
14:23 6 °C 1 °C 1001.4 hPa West 13 km/h 26 km/h 72% 0.0 mm 93 W/m2
14:28 6 °C 1 °C 1001.7 hPa WNW 11 km/h 21 km/h 73% 0.0 mm 98 W/m2
14:33 6 °C 1 °C 1001.7 hPa NW 19 km/h 24 km/h 74% 0.0 mm 107 W/m2
14:38 6 °C 1 °C 1001.7 hPa NW 13 km/h 21 km/h 74% 0.0 mm 105 W/m2
14:43 6 °C 2 °C 1002.0 hPa WNW 16 km/h 21 km/h 75% 0.0 mm 93 W/m2
14:48 6 °C 1 °C 1002.0 hPa WNW 11 km/h 21 km/h 74% 0.0 mm 74 W/m2
14:53 6 °C 1 °C 1002.0 hPa NNW 11 km/h 29 km/h 74% 0.0 mm 63 W/m2
14:58 6 °C 1 °C 1002.0 hPa NW 14 km/h 24 km/h 74% 0.0 mm 53 W/m2
15:03 6 °C 2 °C 1002.4 hPa NNW 3 km/h 18 km/h 75% 0.0 mm 47 W/m2
15:08 6 °C 1 °C 1002.4 hPa West 16 km/h 18 km/h 75% 0.0 mm 51 W/m2
15:13 6 °C 1 °C 1002.4 hPa NW 8 km/h 13 km/h 75% 0.0 mm 54 W/m2
15:19 6 °C 1 °C 1002.4 hPa WNW 11 km/h 16 km/h 75% 0.0 mm 44 W/m2
15:24 6 °C 1 °C 1002.4 hPa WNW 11 km/h 34 km/h 74% 0.0 mm 37 W/m2
15:29 6 °C 1 °C 1002.7 hPa WNW 13 km/h 23 km/h 74% 0.0 mm 28 W/m2
15:34 6 °C 1 °C 1002.7 hPa WNW 10 km/h 18 km/h 75% 0.0 mm 25 W/m2
15:39 6 °C 1 °C 1002.7 hPa WNW 19 km/h 32 km/h 74% 0.0 mm 33 W/m2
15:44 6 °C 1 °C 1002.7 hPa WNW 13 km/h 29 km/h 74% 0.0 mm 30 W/m2
15:49 6 °C 1 °C 1002.7 hPa WNW 13 km/h 16 km/h 75% 0.0 mm 37 W/m2
15:54 5 °C 1 °C 1002.7 hPa WNW 18 km/h 18 km/h 76% 0.0 mm 46 W/m2
15:59 5 °C 1 °C 1002.7 hPa NW 10 km/h 21 km/h 76% 0.0 mm 49 W/m2
16:04 5 °C 1 °C 1002.7 hPa WNW 10 km/h 19 km/h 76% 0.0 mm 46 W/m2
16:09 5 °C 1 °C 1002.7 hPa WNW 16 km/h 21 km/h 76% 0.0 mm 46 W/m2
16:14 5 °C 1 °C 1002.7 hPa NW 6 km/h 18 km/h 76% 0.0 mm 54 W/m2
16:19 6 °C 1 °C 1003.0 hPa WNW 14 km/h 23 km/h 75% 0.0 mm 47 W/m2
16:24 6 °C 1 °C 1003.0 hPa NW 8 km/h 23 km/h 74% 0.0 mm 30 W/m2
16:29 6 °C 1 °C 1003.0 hPa NW 14 km/h 19 km/h 75% 0.0 mm 30 W/m2
16:34 6 °C 1 °C 1003.0 hPa NW 16 km/h 19 km/h 75% 0.0 mm 25 W/m2
16:39 6 °C 1 °C 1003.0 hPa NNW 19 km/h 23 km/h 74% 0.0 mm 23 W/m2
16:44 6 °C 1 °C 1003.4 hPa WNW 16 km/h 31 km/h 73% 0.0 mm 16 W/m2
16:49 6 °C 1 °C 1003.4 hPa West 18 km/h 29 km/h 73% 0.0 mm 9 W/m2
16:54 6 °C 1 °C 1003.4 hPa WNW 13 km/h 18 km/h 72% 0.0 mm 7 W/m2
16:59 6 °C 1 °C 1003.4 hPa WNW 13 km/h 27 km/h 71% 0.0 mm 0 W/m2
17:04 6 °C 1 °C 1003.7 hPa NW 10 km/h 26 km/h 71% 0.0 mm 0 W/m2
17:09 6 °C 1 °C 1003.7 hPa NW 16 km/h 29 km/h 71% 0.0 mm 0 W/m2
17:14 5 °C 1 °C 1003.7 hPa WNW 18 km/h 19 km/h 71% 0.0 mm 0 W/m2
17:19 5 °C 1 °C 1004.1 hPa NW 5 km/h 13 km/h 71% 0.0 mm 0 W/m2
17:24 5 °C 1 °C 1004.1 hPa WNW 10 km/h 14 km/h 72% 0.0 mm 0 W/m2
17:29 5 °C 1 °C 1004.1 hPa WNW 11 km/h 11 km/h 72% 0.0 mm 0 W/m2
17:34 5 °C 1 °C 1004.4 hPa NW 6 km/h 18 km/h 72% 0.0 mm 0 W/m2
17:39 5 °C 0 °C 1004.4 hPa WNW 16 km/h 19 km/h 71% 0.0 mm 0 W/m2
17:44 5 °C 0 °C 1004.4 hPa NW 3 km/h 23 km/h 71% 0.0 mm 0 W/m2
17:49 5 °C 0 °C 1004.4 hPa NW 23 km/h 26 km/h 71% 0.0 mm 0 W/m2
17:54 5 °C 0 °C 1004.4 hPa WNW 24 km/h 26 km/h 71% 0.0 mm 0 W/m2
17:59 5 °C 0 °C 1004.4 hPa West 19 km/h 26 km/h 71% 0.0 mm 0 W/m2
18:04 5 °C 0 °C 1004.4 hPa WNW 11 km/h 18 km/h 71% 0.0 mm 0 W/m2
18:09 5 °C 0 °C 1004.4 hPa WNW 16 km/h 24 km/h 71% 0.0 mm 0 W/m2
18:14 4 °C 0 °C 1004.7 hPa WNW 14 km/h 23 km/h 71% 0.0 mm 0 W/m2
18:19 4 °C 0 °C 1004.7 hPa WNW 8 km/h 14 km/h 71% 0.0 mm 0 W/m2
18:24 4 °C 0 °C 1004.7 hPa WNW 11 km/h 24 km/h 71% 0.0 mm 0 W/m2
18:29 4 °C 0 °C 1005.1 hPa WNW 5 km/h 18 km/h 71% 0.0 mm 0 W/m2
18:34 4 °C 0 °C 1005.1 hPa WNW 8 km/h 13 km/h 72% 0.0 mm 0 W/m2
18:39 4 °C 0 °C 1005.1 hPa WNW 18 km/h 18 km/h 73% 0.0 mm 0 W/m2
18:44 4 °C 0 °C 1005.1 hPa NW 14 km/h 16 km/h 73% 0.0 mm 0 W/m2
18:49 4 °C 0 °C 1005.1 hPa WNW 8 km/h 16 km/h 73% 0.0 mm 0 W/m2
18:54 4 °C -1 °C 1005.1 hPa NW 10 km/h 21 km/h 73% 0.0 mm 0 W/m2
18:59 4 °C -1 °C 1005.1 hPa NW 10 km/h 13 km/h 72% 0.0 mm 0 W/m2
19:04 4 °C -1 °C 1005.4 hPa WNW 10 km/h 23 km/h 72% 0.0 mm 0 W/m2
19:09 4 °C -1 °C 1005.4 hPa West 14 km/h 18 km/h 72% 0.0 mm 0 W/m2
19:14 4 °C -1 °C 1005.4 hPa NW 14 km/h 16 km/h 72% 0.0 mm 0 W/m2
19:19 4 °C -1 °C 1005.4 hPa WNW 11 km/h 16 km/h 72% 0.0 mm 0 W/m2
19:24 4 °C -1 °C 1005.4 hPa WNW 10 km/h 14 km/h 72% 0.0 mm 0 W/m2
19:29 4 °C -1 °C 1005.4 hPa WNW 10 km/h 13 km/h 73% 0.0 mm 0 W/m2
19:34 4 °C -1 °C 1005.4 hPa WNW 10 km/h 18 km/h 73% 0.0 mm 0 W/m2
19:39 4 °C -1 °C 1005.4 hPa WNW 8 km/h 13 km/h 73% 0.0 mm 0 W/m2
19:44 4 °C -1 °C 1005.8 hPa WNW 10 km/h 13 km/h 73% 0.0 mm 0 W/m2
19:49 4 °C -1 °C 1005.8 hPa NW 6 km/h 11 km/h 73% 0.0 mm 0 W/m2
19:54 3 °C -1 °C 1005.8 hPa WNW 8 km/h 11 km/h 74% 0.0 mm 0 W/m2
19:59 3 °C -1 °C 1005.8 hPa WNW 8 km/h 11 km/h 75% 0.0 mm 0 W/m2
20:04 3 °C -1 °C 1005.8 hPa WNW 5 km/h 11 km/h 77% 0.0 mm 0 W/m2
20:09 3 °C 0 °C 1005.8 hPa NW 3 km/h 10 km/h 78% 0.0 mm 0 W/m2
20:14 3 °C 0 °C 1005.8 hPa WNW 6 km/h 13 km/h 79% 0.0 mm 0 W/m2
20:19 3 °C 0 °C 1005.8 hPa WNW 8 km/h 16 km/h 79% 0.0 mm 0 W/m2
20:24 3 °C 0 °C 1005.8 hPa WNW 21 km/h 21 km/h 79% 0.0 mm 0 W/m2
20:29 3 °C 0 °C 1005.8 hPa WNW 8 km/h 16 km/h 79% 0.0 mm 0 W/m2
20:34 3 °C 0 °C 1005.8 hPa WNW 13 km/h 19 km/h 79% 0.0 mm 0 W/m2
20:39 3 °C 0 °C 1005.8 hPa WNW 11 km/h 16 km/h 79% 0.0 mm 0 W/m2
20:44 3 °C 0 °C 1005.8 hPa NW 5 km/h 13 km/h 80% 0.0 mm 0 W/m2
20:49 3 °C 0 °C 1005.8 hPa WNW 11 km/h 24 km/h 80% 0.0 mm 0 W/m2
20:54 3 °C 0 °C 1005.8 hPa WNW 10 km/h 16 km/h 81% 0.0 mm 0 W/m2
20:59 3 °C 0 °C 1005.8 hPa NW 11 km/h 19 km/h 81% 0.0 mm 0 W/m2
21:04 3 °C 0 °C 1006.1 hPa WNW 8 km/h 19 km/h 81% 0.0 mm 0 W/m2
21:10 3 °C 0 °C 1006.1 hPa NW 5 km/h 16 km/h 82% 0.0 mm 0 W/m2
21:15 3 °C 0 °C 1006.1 hPa NW 6 km/h 16 km/h 82% 0.0 mm 0 W/m2
21:20 3 °C 0 °C 1006.1 hPa NW 10 km/h 18 km/h 82% 0.0 mm 0 W/m2
21:25 3 °C 0 °C 1006.1 hPa WNW 6 km/h 14 km/h 82% 0.0 mm 0 W/m2
21:30 3 °C 0 °C 1006.4 hPa WNW 10 km/h 11 km/h 82% 0.0 mm 0 W/m2
21:35 3 °C 0 °C 1006.1 hPa WNW 6 km/h 13 km/h 82% 0.0 mm 0 W/m2
21:40 2 °C -1 °C 1006.4 hPa WNW 8 km/h 11 km/h 82% 0.0 mm 0 W/m2
21:45 2 °C 0 °C 1006.4 hPa WNW 8 km/h 14 km/h 83% 0.0 mm 0 W/m2
21:50 2 °C -1 °C 1006.4 hPa WNW 8 km/h 13 km/h 82% 0.0 mm 0 W/m2
21:55 2 °C 0 °C 1006.4 hPa NW 10 km/h 10 km/h 83% 0.0 mm 0 W/m2
22:00 2 °C 0 °C 1006.4 hPa WNW 13 km/h 13 km/h 83% 0.0 mm 0 W/m2
22:05 2 °C 0 °C 1006.4 hPa WNW 6 km/h 11 km/h 83% 0.0 mm 0 W/m2
22:10 2 °C -1 °C 1006.8 hPa WNW 10 km/h 16 km/h 83% 0.0 mm 0 W/m2
22:15 2 °C -1 °C 1006.8 hPa West 6 km/h 14 km/h 83% 0.0 mm 0 W/m2
22:20 2 °C 0 °C 1006.8 hPa WNW 10 km/h 19 km/h 83% 0.0 mm 0 W/m2
22:25 2 °C 0 °C 1006.8 hPa WNW 6 km/h 14 km/h 83% 0.0 mm 0 W/m2
22:30 2 °C 0 °C 1006.8 hPa WNW 11 km/h 18 km/h 83% 0.0 mm 0 W/m2
22:35 2 °C 0 °C 1006.8 hPa WNW 11 km/h 14 km/h 83% 0.0 mm 0 W/m2
22:40 2 °C 0 °C 1006.8 hPa WNW 10 km/h 16 km/h 83% 0.0 mm 0 W/m2
22:45 2 °C 0 °C 1006.4 hPa WNW 16 km/h 16 km/h 83% 0.0 mm 0 W/m2
22:50 2 °C -1 °C 1006.4 hPa WNW 10 km/h 14 km/h 82% 0.0 mm 0 W/m2
22:55 3 °C 0 °C 1006.8 hPa West 11 km/h 19 km/h 82% 0.0 mm 0 W/m2
23:00 2 °C -1 °C 1006.4 hPa WNW 10 km/h 14 km/h 82% 0.0 mm 0 W/m2
23:05 2 °C 0 °C 1006.4 hPa WNW 6 km/h 13 km/h 83% 0.0 mm 0 W/m2
23:10 2 °C 0 °C 1006.4 hPa WNW 11 km/h 18 km/h 83% 0.0 mm 0 W/m2
23:15 2 °C 0 °C 1006.4 hPa WNW 14 km/h 21 km/h 83% 0.0 mm 0 W/m2
23:20 2 °C 0 °C 1006.4 hPa NW 8 km/h 13 km/h 83% 0.0 mm 0 W/m2
23:25 2 °C 0 °C 1006.4 hPa WNW 10 km/h 14 km/h 83% 0.0 mm 0 W/m2
23:30 2 °C -1 °C 1006.4 hPa WNW 5 km/h 13 km/h 83% 0.0 mm 0 W/m2
23:35 2 °C -1 °C 1006.8 hPa NW 11 km/h 19 km/h 83% 0.0 mm 0 W/m2
23:45 3 °C 0 °C 1006.8 hPa WNW 8 km/h 18 km/h 82% 0.0 mm 0 W/m2
23:50 3 °C 0 °C 1006.8 hPa WNW 10 km/h 19 km/h 82% 0.0 mm 0 W/m2
23:55 3 °C 0 °C 1006.8 hPa West 11 km/h 26 km/h 82% 0.0 mm 0 W/m2
Compliments of Weather Underground - 4.25 mb